(266506) = 2008 EF41

Discovered at Kitt Peak on 2008-03-04 by Spacewatch.

Orbit

Orbit type: Main Belt

Note: WebGL enabled browser required.

epoch2023-02-25.0
epoch JD2460000.5
perihelion date2020-11-13.00162
perihelion JD2459166.50162
argument of perihelion (°)100.21790
ascending node (°)290.62299
inclination (°)4.12639
eccentricity0.1402514
perihelion distance (AU)1.9927003
Tisserand w.r.t. Jupiter3.6
ΔV w.r.t. Earth (km/sec)8.8
semimajor axis (AU)2.3177710
mean anomaly (°)232.95029
mean daily motion (°/day)0.27931740
aphelion distance (AU)2.643
period (years)3.53
P-vector [x]0.85620653
P-vector [y]0.44135930
P-vector [z]0.26853742
Q-vector [x]-0.51222547
Q-vector [y]0.79297083
Q-vector [z]0.32988230
absolute magnitude17.27
phase slope0.15
uncertainty0
referenceMPO 745323
observations used426
oppositions15
arc length (days)10213
first opposition used1995
last opposition used2023
residual rms (arc-secs)0.82
perturbers coarse indicatorM-v
perturbers precise indicator003Ek
first observation date used1995-07-02.0
last observation date used2023-06-18.0
computer nameMPCLINUX
JD of orbit computation2456670.933436
perihelion JD uncertainty (days)6.8098E-05
argument of perihelion uncertainty (°)1.2221E-04
ascending node uncertainty (°)1.2030E-04
inclination uncertainty (°)4.8728E-06
eccentricity uncertainty 8.4881E-08
perihelion distance uncertainty (AU)1.9344E-07
Minimum Orbit Intersection Distances (in AU)
for orbit epoch: 2460000.5, reference: E2023-M50
Mercury1.66345
Venus1.27578
Earth1.00153
Mars0.531
Jupiter2.78762
Saturn6.83887
Uranus15.884
Neptune27.8656

Observations

446 total observations over interval: 1995 07 02.39463 – 2023 06 18.505439
These data are available for download (format description).

Date (UT) J2000 RA J2000 Dec Magn Location Ref
1995 07 02.39463 21 53 20.06 -10 51 02.2 20.9 V 691 – Steward Observatory, Kitt Peak-Spacewatch MPS 252795
1995 07 02.42086 21 53 19.86 -10 50 58.8   691 – Steward Observatory, Kitt Peak-Spacewatch MPS 252795
1995 07 02.45179 21 53 19.61 -10 50 54.2   691 – Steward Observatory, Kitt Peak-Spacewatch MPS 252795
2002 07 18.25006 21 05 45.77 -14 37 37.7 21.1   644 – Palomar Mountain/NEAT MPS 252679
2002 07 18.32524 21 05 41.83 -14 37 43.0 20.5   644 – Palomar Mountain/NEAT MPS 252679
2002 07 18.39090 21 05 38.35 -14 37 46.6 20.3   644 – Palomar Mountain/NEAT MPS 252679
2002 08 07.32479 20 45 59.49 -15 08 28.8 19.8   644 – Palomar Mountain/NEAT MPS 252679
2002 08 07.34946 20 45 57.88 -15 08 31.8 19.7   644 – Palomar Mountain/NEAT MPS 252679
2002 08 07.37373 20 45 56.33 -15 08 34.4 20.2   644 – Palomar Mountain/NEAT MPS 252679
2006 10 04.40491 03 04 55.84 +24 53 10.6 19.5 V G96 – Mt. Lemmon Survey MPS 252795
2006 10 04.41378 03 04 55.70 +24 53 11.1 19.5 V G96 – Mt. Lemmon Survey MPS 252795
2006 10 04.42265 03 04 55.52 +24 53 11.6 19.3 V G96 – Mt. Lemmon Survey MPS 252795
2006 10 04.43148 03 04 55.34 +24 53 12.3 19.4 V G96 – Mt. Lemmon Survey MPS 252795
2006 10 22.49043 02 54 20.82 +24 35 13.5 19.2 R 644 – Palomar Mountain/NEAT MPS 252795
2006 10 22.51078 02 54 19.74 +24 35 09.8 19.3 R 644 – Palomar Mountain/NEAT MPS 252795
2006 10 22.53606 02 54 18.42 +24 35 04.8 19.0 R 644 – Palomar Mountain/NEAT MPS 252795
2006 11 08.34316 02 38 07.08 +23 15 26.4 19.0 R 644 – Palomar Mountain/NEAT MPS 252795
2006 11 08.36361 02 38 05.79 +23 15 18.8 18.8 R 644 – Palomar Mountain/NEAT MPS 252795
2006 11 08.38402 02 38 04.52 +23 15 11.2 19.0 R 644 – Palomar Mountain/NEAT MPS 252795
2006 11 16.23561 02 30 40.50 +22 24 19.3 18.5 C 704 – Lincoln Laboratory ETS, New Mexico MPS 293240
2006 11 16.24734 02 30 39.88 +22 24 14.9 18.7 C 704 – Lincoln Laboratory ETS, New Mexico MPS 293240
2006 11 16.27083 02 30 38.56 +22 24 05.0 19.1 C 704 – Lincoln Laboratory ETS, New Mexico MPS 293240
2006 11 16.28257 02 30 37.92 +22 24 00.9 18.9 C 704 – Lincoln Laboratory ETS, New Mexico MPS 293240
2006 11 19.19155 02 28 10.24 +22 04 22.1   704 – Lincoln Laboratory ETS, New Mexico MPS 407114
2006 11 19.20381 02 28 09.46 +22 04 17.9   704 – Lincoln Laboratory ETS, New Mexico MPS 407114
2006 11 19.21607 02 28 08.90 +22 04 13.0   704 – Lincoln Laboratory ETS, New Mexico MPS 407114
2006 11 19.22835 02 28 08.21 +22 04 08.2   704 – Lincoln Laboratory ETS, New Mexico MPS 407114
2006 11 19.24062 02 28 07.51 +22 04 03.3   704 – Lincoln Laboratory ETS, New Mexico MPS 407114
2006 11 22.19129 02 25 50.63 +21 44 08.2   704 – Lincoln Laboratory ETS, New Mexico MPS 407114
2006 11 22.20364 02 25 50.03 +21 44 03.1   704 – Lincoln Laboratory ETS, New Mexico MPS 407114
2006 11 22.21601 02 25 49.44 +21 43 58.1   704 – Lincoln Laboratory ETS, New Mexico MPS 407114
2006 11 22.22847 02 25 48.90 +21 43 52.8   704 – Lincoln Laboratory ETS, New Mexico MPS 407114
2006 11 22.24085 02 25 48.29 +21 43 48.3   704 – Lincoln Laboratory ETS, New Mexico MPS 407114
2006 12 25.11878 02 20 14.13 +19 08 40.9 20.4 V G96 – Mt. Lemmon Survey MPS 252679
2006 12 25.12434 02 20 14.24 +19 08 40.1 20.2 V G96 – Mt. Lemmon Survey MPS 252679
2006 12 25.12990 02 20 14.38 +19 08 39.2 20.3 V G96 – Mt. Lemmon Survey MPS 252679
2006 12 25.13554 02 20 14.49 +19 08 38.6 20.0 V G96 – Mt. Lemmon Survey MPS 252679
2007 03 12.13417 04 00 33.22 +22 06 15.6 20.9 V G96 – Mt. Lemmon Survey MPS 252680
2007 03 12.14028 04 00 33.91 +22 06 17.7 21.4 V G96 – Mt. Lemmon Survey MPS 252680
2007 03 12.14638 04 00 34.52 +22 06 18.4 22.1 V G96 – Mt. Lemmon Survey MPS 252680
2007 03 12.15246 04 00 35.24 +22 06 18.1 22.1 V G96 – Mt. Lemmon Survey MPS 252680
2008 03 04.33273 12 47 46.07 -11 40 49.0 20.9 V 691 – Steward Observatory, Kitt Peak-Spacewatch MPS 242354
2008 03 04.35038 12 47 45.31 -11 40 47.0 21.1 V 691 – Steward Observatory, Kitt Peak-Spacewatch MPS 242354
2008 03 04.36805 12 47 44.53 -11 40 44.1 20.7 V 691 – Steward Observatory, Kitt Peak-Spacewatch MPS 242354
2008 03 08.33046 12 44 51.13 -11 30 30.6   691 – Steward Observatory, Kitt Peak-Spacewatch MPS 242354
2008 03 08.34815 12 44 50.28 -11 30 27.7   691 – Steward Observatory, Kitt Peak-Spacewatch MPS 242354
2008 03 08.36584 12 44 49.40 -11 30 24.4   691 – Steward Observatory, Kitt Peak-Spacewatch MPS 242354
2008 03 12.33082 12 41 37.06 -11 17 17.7 20.5 V 691 – Steward Observatory, Kitt Peak-Spacewatch MPS 252513
2008 03 12.34854 12 41 36.15 -11 17 14.4 20.7 V 691 – Steward Observatory, Kitt Peak-Spacewatch MPS 252513
2008 03 12.36625 12 41 35.20 -11 17 10.2 20.9 V 691 – Steward Observatory, Kitt Peak-Spacewatch MPS 252513
2008 04 01.34857 12 22 49.51 -09 36 35.9 20.7 V G96 – Mt. Lemmon Survey MPS 252680
2008 04 01.35381 12 22 49.22 -09 36 34.1 20.6 V G96 – Mt. Lemmon Survey MPS 252680
2008 04 01.35792 12 22 48.97 -09 36 32.7 20.5 V G96 – Mt. Lemmon Survey MPS 252680
2008 04 01.36358 12 22 48.61 -09 36 30.4 20.6 V G96 – Mt. Lemmon Survey MPS 252680
2009 06 15.39907 20 42 58.14 -18 11 59.4 20.2 V G96 – Mt. Lemmon Survey MPS 288690
2009 06 15.40627 20 42 57.96 -18 11 59.4 20.7 V G96 – Mt. Lemmon Survey MPS 288690
2009 06 15.41347 20 42 57.88 -18 11 58.5 20.7 V G96 – Mt. Lemmon Survey MPS 288690
2009 06 15.42040 20 42 57.81 -18 11 58.1 20.7 V G96 – Mt. Lemmon Survey MPS 288690
2009 06 22.38813 20 40 49.58 -18 06 10.2 20.2 V G96 – Mt. Lemmon Survey MPS 289025
2009 06 22.39723 20 40 49.33 -18 06 10.1 20.6 V G96 – Mt. Lemmon Survey MPS 289025
2009 06 22.40623 20 40 49.11 -18 06 09.5 20.1 V G96 – Mt. Lemmon Survey MPS 289025
2009 06 22.41534 20 40 48.86 -18 06 09.7 20.6 V G96 – Mt. Lemmon Survey MPS 289025
2010 12 29.31821 09 09 08.10 +15 18 23.0 20.6 V 703 – Catalina Sky Survey MPS 367116
2010 12 29.32403 09 09 07.81 +15 18 21.4 19.5 V 703 – Catalina Sky Survey MPS 367116
2010 12 29.32983 09 09 07.59 +15 18 21.0 20.6 V 703 – Catalina Sky Survey MPS 367116
2010 12 29.33562 09 09 07.41 +15 18 19.5 19.7 V 703 – Catalina Sky Survey MPS 367116
2011 01 12.29801 08 58 13.23 +15 31 33.8   691 – Steward Observatory, Kitt Peak-Spacewatch MPS 365729
2011 01 12.31575 08 58 12.19 +15 31 35.4   691 – Steward Observatory, Kitt Peak-Spacewatch MPS 365729
2011 01 12.33350 08 58 11.08 +15 31 37.1   691 – Steward Observatory, Kitt Peak-Spacewatch MPS 365729
2011 01 29.24529 08 39 58.50 +16 07 01.4 20.1 V 703 – Catalina Sky Survey MPS 368582
2011 01 29.25229 08 39 58.10 +16 07 01.6 20.2 V 703 – Catalina Sky Survey MPS 368582
2011 01 29.25933 08 39 57.60 +16 07 01.8 20.7 V 703 – Catalina Sky Survey MPS 368582
2011 01 29.26634 08 39 57.06 +16 07 04.1 19.9 V 703 – Catalina Sky Survey MPS 368582
2011 02 04.20988 08 33 23.07 +16 20 33.4 19.5 R H15 – ISON-NM Observatory, Mayhill MPS 368582
2011 02 04.22343 08 33 22.17 +16 20 35.3 19.5 R H15 – ISON-NM Observatory, Mayhill MPS 368582
2011 02 04.23695 08 33 21.27 +16 20 37.2 19.5 R H15 – ISON-NM Observatory, Mayhill MPS 368582
2011 02 04.25037 08 33 20.38 +16 20 39.0 19.5 R H15 – ISON-NM Observatory, Mayhill MPS 368582
2011 03 09.16865 08 10 47.46 +17 03 11.4 20.8 V G96 – Mt. Lemmon Survey MPS 374766
2011 03 09.17567 08 10 47.38 +17 03 11.3 20.6 V G96 – Mt. Lemmon Survey MPS 374766
2011 03 09.18267 08 10 47.28 +17 03 11.6 20.5 V G96 – Mt. Lemmon Survey MPS 374766
2011 03 09.18962 08 10 47.17 +17 03 11.4 20.8 V G96 – Mt. Lemmon Survey MPS 374766
2012 05 20.37943 15 30 46.063 -24 35 33.70 20.4 w F51 – Pan-STARRS 1, Haleakala MPS 425905
2012 05 20.39403 15 30 45.101 -24 35 29.72 20.5 w F51 – Pan-STARRS 1, Haleakala MPS 425905
2012 05 20.40864 15 30 44.135 -24 35 25.77 20.5 w F51 – Pan-STARRS 1, Haleakala MPS 425905
2012 05 20.42319 15 30 43.168 -24 35 21.51 20.5 w F51 – Pan-STARRS 1, Haleakala MPS 425905
2013 09 13.96087 02 13 17.76 +20 49 24.9 20.2 V D00 – ASC-Kislovodsk Observatory MPS 477518
2013 09 13.98310 02 13 17.71 +20 49 29.0 20.4 V D00 – ASC-Kislovodsk Observatory MPS 477518
2013 09 13.99411 02 13 17.69 +20 49 30.9 20.6 V D00 – ASC-Kislovodsk Observatory MPS 477518
2013 10 04.23937 02 06 06.74 +21 06 52.4 19.6 V 691 – Steward Observatory, Kitt Peak-Spacewatch MPS 479832
2013 10 04.25712 02 06 05.95 +21 06 51.3 19.5 V 691 – Steward Observatory, Kitt Peak-Spacewatch MPS 479832
